Ana Sayfa
METAR-TAF:

METAR-TAF

Havaalanları :

Concord, Kuzey Carolina, Amerika Birleşik Devletleri

Enlem: 35-23-07N, Boylam: 080-42-35W, yükseklik: 210 m

Güncel hava durumu gözlemi

Rapor saat 21:50 UTC de 1 saat ve 29 dakika önce yapıldı.
Rüzgar güneybatıdan 5 kt
Sıcaklık 25°C
Nem 89%
Basınç 1017 hPa
Görüş mesafesi: 16.1 km
9500 ft yükseklikte parçalı çok bulutlu

METAR: KJQF 112150Z 23005KT 10SM BKN095 25/23 A3003

Saat: 19:19 (23:19 UTC)


TAF: eksik

4.000'den fazla havaalanı için hava durumu gözlemleri ve tahminleri (METAR ve TAF raporları).

Kullanılabilir istasyonlar harita üzerinde sarı ve kırmızı noktalarla gösterilir.

İstasyonun adını görmek için fareyi noktanın üzerinde gezdirin.

Sonrasında hava gözlem ve tahminlerini görmek için tıklayın.

Haritayı değiştirmek için: yaklaştırmak için siyah artı işaretli yeşil düğmeye ve uzaklaştırmak için de eksi işaretli düğmeye hızla tıklayın; bitişik haritalar için yeşil okları kullanın.


METAR-TAF: